Probability
0 0 0 0 0 0 0 0 0 0 0 0 0 0 0 0 0 0 0 0 0 0 0 0 0 0 0 0 0 0 0 0 0 0 0 0 0 0 0 0 0 0 0
0 0 0 0 0 0 0 0 0 0 0 0 0 0 0 0 0 0 0 0 0 0 0 0 0 0 0 0 0 0 0 0 0 0 0 0 0 0 0 0 0 0 0
0 0 0 0 0 0 0 0 0 0 0 0 0 0 0 0 0 0 0 0 0 0 0 0 0 0 0 0 0 0 0 0 0 0 0 0 0 0 0 0 0 0 0
0 0 0 0 0 0 0 0 0 0 0 0 0 0 0 0 0 0 0 0 0 0 0 0 0 0 0 0 0 0 0 0 0 0 0 0 0 0 0 0 0 0 0
0 0 0 0 0 0 0 0 0 0 0 0 0 0 0 0 0 0 0 0 0 0 0 0 0 0 0 0 0 0 0 0 0 0 0 0 0 0 0 0 0 0 0
0 0 0 0 0 0 0 0 0 0 0 0 0 0 0 0 0 0 0 0 0 0 0 0 0 0 0 0 0 0 0 0 0 0 0 0 0 0 0 0 0 0 0
0 0 0 0 0 0 0 0 0 0 0 0 0 0 0 0 0 0 0 0 0 0 0 0 0 0 0 0 0 0 0 0 0 0 0 0 0 0 0 0 0 0 0
0 0 0 0 0 0 0 0 0 0 0 0 0 0 0 0 0 0 0 0 0 0 0 0 0 0 0 0 0 0 0 0 0 0 0 0 0 0 0 0 0 0 0
0 0 0 0 0 0 0 0 0 0 0 0 0 0 0 0 0 0 0 0 0 0 0 0 0 0 0 0 0 0 0 0 0 0 0 0 0 0 0 0 0 0 0
1 1 0 0 0 0 0 0 0 0 0 0 0 0 0 0 0 0 0 0 0 0 0 0 0 0 0 0 0 0 0 0 0 0 0 0 0 0 0 0 0 0 0
2 2 1 1 0 0 0 0 0 0 0 0 0 0 0 0 0 0 0 0 0 0 0 0 0 0 0 0 0 0 0 0 0 0 0 0 0 0 0 0 0 0 0
3 3 3 2 1 0 0 0 0 0 0 0 0 0 0 0 0 0 0 0 0 0 0 0 0 0 0 0 0 0 0 0 0 0 0 0 0 0 0 0 0 0 0
3 3 3 3 2 1 0 0 0 0 0 0 0 0 0 0 0 0 0 0 0 0 0 0 0 0 0 0 0 0 0 0 0 0 0 0 0 0 0 0 0 0 0
3 3 3 3 3 2 1 0 0 0 0 0 0 0 0 0 0 0 0 0 0 0 0 0 0 0 0 0 0 0 0 0 0 0 0 0 0 0 0 0 0 0 0
3 3 3 3 3 3 2 1 0 0 0 0 0 0 0 0 0 0 0 0 0 0 0 0 0 0 0 0 0 0 0 0 0 0 0 0 0 0 0 0 0 0 0
3 3 3 3 3 3 3 2 1 0 0 0 0 0 0 0 0 0 0 0 0 0 0 0 0 0 0 0 0 0 0 0 0 0 0 0 0 0 0 0 0 0 0
3 3 3 3 3 3 3 3 2 1 0 0 0 0 0 0 0 0 0 0 0 0 0 0 0 0 0 0 0 0 0 0 0 0 0 0 0 0 0 0 0 0 0
3 3 3 3 3 3 3 3 3 2 1 1 1 0 0 0 0 0 0 0 0 0 0 0 0 0 0 0 0 0 0 0 0 0 0 0 0 0 0 0 0 0 0
1 2 2 3 3 3 3 3 3 3 3 2 2 1 0 0 0 0 0 0 0 0 0 0 0 0 0 0 0 0 0 0 0 0 0 0 0 0 0 0 0 0 0
0 1 1 1 2 2 2 2 3 3 3 3 2 1 0 1 1 1 0 0 0 0 0 0 0 0 0 0 0 0 0 0 0 0 0 0 0 0 0 0 0 0 0
0 0 0 0 1 1 1 1 1 2 2 2 1 0 0 1 2 1 0 0 0 0 0 0 0 0 0 0 0 0 0 0 0 0 0 0 0 0 0 0 0 0 0
0 0 0 0 0 0 0 0 0 1 1 1 0 0 0 1 1 1 0 0 0 0 0 0 0 0 0 0 0 0 0 0 0 0 0 0 0 0 0 0 0 0 0
0 0 0 0 0 0 0 0 0 0 0 0 0 0 0 0 0 0 0 0 0 0 0 0 0 0 0 0 0 0 0 0 0 0 0 0 0 0 0 0 0 0 0
0 0 0 0 0 0 0 0 0 0 0 0 0 0 0 0 0 0 0 0 0 0 0 0 0 0 0 0 0 0 0 0 0 0 0 0 0 0 0 0 0 0 0
0 0 0 0 0 0 0 0 0 0 0 0 0 0 0 0 0 0 0 0 0 0 0 0 0 0 0 0 0 0 0 0 0 0 0 0 0 0 0 0 0 0 0
0 0 0 0 0 0 0 0 0 0 0 0 0 0 0 0 0 0 0 0 0 0 0 0 0 0 0 0 0 0 0 0 0 0 0 0 0 0 0 0 0 0 0
Wind_Speed
4 4 3 3 3 3 3 3 3 3 4 4 4 4 5 5 5 4 4 8 11 12 13 13 14 13 13 13 13 13 13 12 12 12 12 13 13 13 13 13 13 14 14
5 5 4 4 4 3 4 4 4 4 4 3 4 5 5 5 5 5 5 6 9 11 13 14 15 15 14 14 14 13 13 13 12 11 11 12 12 13 14 14 14 14 14
6 5 5 5 4 4 4 4 4 3 3 3 5 5 5 5 5 6 5 4 5 8 11 14 14 14 14 14 14 13 13 13 12 12 11 11 12 12 12 13 14 14 14
7 6 5 5 5 4 4 4 4 3 4 4 4 4 4 4 6 6 6 5 4 4 7 10 12 13 13 14 14 14 14 13 13 12 11 11 12 12 12 13 13 14 15
8 7 6 5 5 4 5 5 4 4 4 4 5 5 5 5 6 6 6 6 5 5 4 6 9 10 12 13 14 14 14 14 13 12 11 11 11 12 12 12 13 13 14
8 7 6 6 6 5 5 5 5 5 4 4 4 5 5 5 5 5 6 5 5 5 5 5 4 5 9 12 13 13 13 13 13 12 12 11 11 11 12 12 13 14 14
9 8 6 6 6 6 7 7 5 5 5 3 2 4 4 5 6 6 5 4 5 5 4 4 4 4 4 9 11 12 12 12 12 12 12 11 11 11 12 13 13 14 14
9 8 8 7 7 6 7 7 6 4 3 3 3 2 4 4 3 4 3 4 5 3 3 4 4 4 4 3 5 9 10 11 11 12 11 11 11 12 13 13 14 14 15
7 8 8 7 6 7 6 7 7 7 5 4 5 4 3 4 3 3 2 3 3 3 3 3 4 4 4 3 3 6 8 10 10 11 11 11 12 12 13 13 14 14 15
7 7 7 7 7 6 7 7 7 6 6 5 4 5 5 3 3 4 3 2 2 3 4 3 3 3 3 3 3 5 6 7 8 10 10 11 11 12 12 13 14 14 15
6 7 7 7 7 6 7 7 6 7 6 6 5 3 5 5 5 5 6 4 2 2 3 3 3 2 2 2 2 4 5 6 7 7 8 9 10 11 12 12 13 14 15
4 5 6 6 6 6 6 6 6 7 7 7 6 5 4 4 4 5 7 6 5 4 3 2 2 2 2 2 3 5 5 6 6 6 7 7 8 9 10 11 12 13 14
4 5 5 5 5 6 6 5 6 6 7 7 7 6 5 5 4 4 6 6 5 3 3 2 2 2 2 2 3 5 5 6 6 6 6 7 7 8 9 10 11 12 12
5 4 5 5 5 5 5 5 5 5 5 6 6 6 5 5 4 5 4 4 6 5 4 4 2 2 2 1 3 4 4 5 6 6 6 6 7 8 8 9 11 11 11
3 4 4 4 4 4 4 4 4 4 4 4 4 5 5 4 4 4 4 4 6 7 6 3 2 1 1 1 2 2 3 5 6 6 7 7 8 8 8 9 10 11 11
3 3 4 4 4 4 4 4 3 3 4 4 3 4 4 3 3 2 3 3 4 6 6 2 1 1 1 2 3 3 3 6 6 7 7 7 8 8 8 9 9 10 11
2 3 4 4 4 3 3 4 4 3 4 4 3 3 4 3 3 3 2 3 3 4 6 4 1 1 1 2 4 3 3 3 3 6 7 7 8 8 8 8 9 9 10
1 2 2 3 3 3 3 4 4 4 4 4 4 4 4 3 3 3 3 3 3 3 5 6 3 2 2 2 3 4 3 2 3 6 7 8 7 7 8 8 9 9 9
1 0 1 2 2 2 3 3 4 4 4 4 4 4 4 3 4 3 3 3 3 3 3 4 4 2 2 2 3 3 3 3 3 5 7 7 7 7 9 9 9 10 10
1 1 1 1 1 2 2 2 2 3 3 3 3 3 3 3 4 4 3 3 2 3 3 3 3 3 2 2 2 3 4 3 4 4 4 5 7 8 9 10 10 10 10
1 1 1 1 1 1 1 1 2 3 2 2 1 1 2 2 2 3 2 2 2 2 2 3 3 3 3 2 2 2 4 5 4 2 3 4 4 4 4 7 8 9 10
1 1 1 1 1 1 1 0 1 1 1 1 1 1 0 1 0 1 1 1 1 2 3 3 3 4 4 3 3 3 3 4 4 2 4 6 3 5 4 4 8 11 11
2 1 1 0 1 1 1 0 1 1 1 1 1 1 0 0 0 0 0 0 0 1 2 3 4 4 3 3 3 3 3 4 5 4 4 6 3 5 4 6 11 11 11
2 2 1 1 0 1 1 1 1 1 1 0 0 1 1 0 1 0 0 1 1 1 2 1 2 3 3 2 2 3 4 4 4 3 2 4 4 5 5 5 9 9 10
2 2 1 1 1 1 1 2 2 1 1 1 1 1 1 0 1 1 0 1 1 2 3 3 2 3 4 4 3 1 1 2 4 3 1 2 4 5 5 4 5 9 10
2 1 1 1 1 1 1 2 2 1 1 1 1 1 1 1 2 1 0 0 1 1 1 2 3 4 3 3 4 1 1 2 3 3 1 2 3 4 5 3 3 4 6
Wind_Direction
192 193 199 201 203 199 202 210 221 232 240 246 246 248 254 256 257 254 260 265 270 275 279 282 283 283 283 283 282 281 280 277 273 268 266 265 264 264 265 267 266 267 267
195 195 201 204 208 207 208 210 219 228 239 243 252 250 252 256 256 256 255 263 265 269 274 280 283 284 284 284 284 284 284 281 279 276 272 270 268 266 265 265 266 267 267
198 200 205 210 213 208 208 213 224 229 242 246 253 254 253 254 256 257 256 253 258 264 268 274 279 282 284 287 288 288 286 285 283 281 278 276 274 272 270 269 269 269 268
201 201 208 215 210 202 203 210 217 226 239 245 253 257 253 254 256 256 255 254 252 257 263 268 273 278 283 286 288 289 290 289 288 287 285 283 282 280 277 274 272 271 271
203 205 212 213 203 205 209 215 218 218 236 246 252 258 255 253 254 253 254 254 251 251 252 264 265 271 277 283 286 289 290 290 289 288 288 286 284 284 283 281 278 275 274
204 206 213 211 201 207 214 214 222 221 230 240 255 264 261 256 252 250 253 254 251 249 248 252 259 266 268 276 281 284 287 289 291 290 289 288 287 286 285 284 283 281 278
205 206 212 209 206 212 218 216 217 227 235 215 250 279 271 254 251 252 249 251 255 250 245 246 249 253 266 273 277 281 284 288 291 292 292 291 290 290 288 287 286 286 285
205 206 211 212 208 214 219 217 213 221 223 192 201 261 297 309 285 256 249 246 253 250 250 249 245 246 251 257 273 277 282 285 289 291 291 292 293 293 293 291 290 290 289
208 208 210 211 209 210 219 219 215 219 228 215 200 206 238 260 304 295 255 249 254 249 254 252 249 250 250 250 263 278 281 284 287 291 292 293 294 295 295 294 293 292 291
210 212 213 213 213 213 219 219 214 217 221 230 219 218 225 216 251 295 289 266 256 253 258 258 257 254 252 253 261 272 279 282 286 291 292 292 293 294 295 295 295 294 294
212 214 214 213 215 218 222 220 215 216 219 226 221 215 229 233 230 249 276 285 290 263 257 255 252 254 257 252 260 278 278 281 285 290 293 294 295 296 296 296 296 295 294
215 218 216 215 217 220 223 223 220 219 223 224 224 218 214 223 225 232 254 265 271 265 259 245 241 244 247 251 266 279 280 285 289 294 295 296 297 297 298 298 299 299 299
217 220 215 220 223 227 226 222 220 222 223 223 227 228 227 233 229 232 248 261 266 265 252 252 241 241 250 262 280 288 285 292 297 300 300 300 301 302 304 305 305 305 305
219 215 211 217 223 226 226 222 221 224 222 224 229 229 231 234 231 230 236 252 269 266 244 244 236 243 255 266 296 294 292 299 302 304 306 307 307 307 305 304 303 304 304
214 208 206 213 220 221 222 218 221 222 220 225 230 230 234 239 237 238 236 234 249 266 265 240 231 262 282 283 312 303 293 309 310 313 310 310 309 308 306 305 306 306 306
214 207 210 212 213 217 218 217 221 223 215 222 224 223 231 241 241 240 238 239 236 251 265 252 228 266 291 310 318 303 296 313 312 314 312 314 313 312 311 310 312 311 312
226 217 217 209 208 213 215 212 218 213 213 218 216 217 229 231 239 242 236 236 241 243 260 272 259 279 283 306 315 308 298 297 310 311 313 315 312 310 313 313 316 316 315
279 237 220 212 208 209 208 207 217 214 216 220 220 218 229 223 234 242 235 240 242 238 247 266 277 283 273 291 305 307 312 318 309 312 316 314 311 313 316 316 318 319 318
321 281 216 214 207 203 208 213 213 215 219 223 220 218 226 218 230 237 235 239 247 252 247 256 272 286 285 318 319 311 311 309 316 311 314 316 315 317 317 316 317 317 317
323 302 256 238 231 222 211 210 205 215 222 231 231 226 225 218 227 231 231 237 241 247 253 256 266 281 292 311 317 310 313 316 311 311 310 314 314 314 313 312 311 311 312
327 317 340 330 296 254 237 218 208 204 209 221 233 237 229 213 228 226 224 227 230 240 251 260 264 277 280 308 302 302 300 312 304 307 319 310 305 302 308 309 309 309 312
336 358 354 343 334 322 359 153 177 190 195 199 210 211 184 154 165 180 193 216 230 241 250 253 260 269 281 290 296 302 308 316 305 330 325 305 304 300 303 300 309 314 316
328 318 306 336 315 342 14 27 112 146 144 188 193 171 125 56 158 190 168 139 295 303 272 260 264 269 278 291 295 291 288 287 283 306 318 295 300 295 300 304 312 314 318
313 302 309 307 316 352 29 44 76 75 81 99 98 127 125 18 19 26 37 61 40 3 331 296 278 290 301 299 276 273 276 287 286 286 295 284 301 297 302 295 304 314 324
306 300 300 285 282 332 48 56 68 73 77 35 36 52 76 302 5 12 20 2 15 15 31 33 3 346 340 336 332 332 314 310 299 295 319 289 300 307 298 287 302 317 324
286 293 300 297 281 303 65 76 86 105 101 37 25 29 26 11 4 7 296 226 278 312 3 13 8 356 349 340 343 317 268 261 282 284 314 320 303 324 308 295 313 319 318